Flag for U.S.A. Weather past 2 weeks in Panama City, Florida, U.S.A.

Now
62 °F

Sunny.


Feels Like: 62 °F
Forecast: 43 / 62 °F
Wind: 16 mph from Southeast

Location: Tyndall Air Force Base

Current Time: Jan 29, 2015 at 12:38:50 PM

Latest Report: Jan 29, 2015 at 11:58 AM


Visibility: 10 mi

Pressure: 30.30 "Hg

Humidity: 61%

Dew point: 48 °F

Location of Panama CityLocation

Historic Weather in Panama City — Graph

°F

Panama City temperature yesterday

Maximum temperature yesterday: 60 °F (at 2:58 PM)
Minimum temperature yesterday: 41 °F (at 11:58 PM)
Average temperature yesterday: 49 °F

Past Weeks' High & Low Weather Summary

 TemperatureHumidityPressure
High73 °F (Jan 21, 2:08 PM)100% (Jan 15, 10:03 AM)30.36 "Hg (Jan 15, 10:03 AM)
Low35 °F (Jan 19, 6:58 AM)22% (Jan 19, 11:58 AM)29.79 "Hg (Jan 23, 4:58 PM)
Average53 °F78%30.10 "Hg
* Reported Jan 14 10:58 AM — Jan 29 10:58 AM, Panama City, Weather by CustomWeather, © 2014

Note: Actual official high and low records may vary slightly from our data, if they occured in-between our weather recording intervals... More about our weather records

Advertising

Panama City weather history for previous 24 hours

 ConditionsComfort  
Time TempWeatherWind HumidityBarometerVisibility
10:58 AM
Jan 29
61 °FSunny.15 mph65%30.33 "Hg10 mi
9:58 AM60 °FSunny.15 mph64%30.34 "Hg10 mi
8:58 AM52 °FSunny.9 mph75%30.35 "Hg10 mi
7:58 AM46 °FSunny.5 mph86%30.36 "Hg10 mi
6:58 AM42 °FSunny.2 mph89%30.35 "Hg10 mi
5:58 AM42 °FSunny.No wind89%30.34 "Hg10 mi
4:58 AM42 °FClear.6 mph92%30.31 "Hg10 mi
3:58 AM41 °FClear.2 mph96%30.31 "Hg10 mi
2:58 AM40 °FClear.5 mph96%30.30 "Hg10 mi
1:58 AM44 °FClear.5 mph94%30.28 "Hg10 mi
12:58 AM41 °FClear.5 mph96%30.28 "Hg10 mi
11:58 PM
Jan 28
41 °FClear.2 mph97%30.30 "Hg10 mi
10:58 PM43 °FClear.No wind90%30.31 "Hg10 mi
9:58 PM44 °FClear.3 mph89%30.31 "Hg10 mi
8:58 PM48 °FClear.3 mph73%30.31 "Hg10 mi
7:58 PM48 °FClear.6 mph66%30.31 "Hg10 mi
6:58 PM51 °FClear.3 mph56%30.29 "Hg10 mi
5:58 PM53 °FClear.5 mph51%30.26 "Hg10 mi
4:58 PM57 °FClear.5 mph41%30.25 "Hg10 mi
3:58 PM60 °FSunny.8 mph34%30.24 "Hg10 mi
2:58 PM60 °FSunny.7 mph37%30.25 "Hg10 mi
1:58 PM59 °FSunny.7 mph38%30.24 "Hg10 mi
12:58 PM57 °FSunny.7 mph44%30.23 "Hg10 mi
Weather by CustomWeather, © 2014

See weather overviewHow to use our weather pages